Theta_e
361 365 368 369 367 366 366 364 364 362 362 362 361 362 363 363 362 362 363 362 362 362 363 361 362 362 361 358 356 357 358 357 356 351 349 349 351 354 356 355 360 354 354
361 364 367 368 367 367 366 364 363 362 362 362 362 362 363 362 362 362 362 362 362 364 362 361 361 360 358 355 353 353 353 354 354 351 350 349 350 352 353 355 357 355 358
360 362 364 367 367 366 365 364 363 362 362 363 363 362 362 362 363 363 363 364 363 364 361 360 359 357 355 353 351 351 351 352 352 351 351 346 346 356 355 356 357 358 358
359 359 363 367 367 366 365 363 362 362 362 362 362 362 362 362 363 363 363 363 364 362 361 360 358 355 352 350 350 350 351 351 351 351 343 341 342 359 359 360 359 356 356
357 360 364 366 366 366 364 363 362 362 362 362 363 362 363 362 362 362 362 362 363 360 359 357 355 356 354 351 350 350 349 349 348 347 337 333 344 358 362 361 357 358 359
358 361 365 366 365 366 364 363 362 362 362 362 362 363 362 362 362 361 361 362 362 360 358 356 355 354 352 349 350 349 348 348 347 335 335 335 339 359 362 360 358 357 355
359 360 362 365 366 365 364 362 362 362 362 362 362 362 361 361 361 361 361 362 361 360 357 355 353 351 349 349 348 348 349 347 340 334 332 331 339 357 362 360 355 354 352
359 359 361 365 365 364 364 362 361 361 361 361 361 361 361 360 360 361 361 361 361 360 358 354 351 349 348 348 348 348 349 347 340 334 331 330 354 358 355 352 354 355 356
359 357 359 361 363 364 363 362 361 361 361 361 360 360 360 360 360 361 361 361 360 359 357 354 350 349 349 348 348 349 350 349 339 339 336 343 353 356 358 359 359 358 358
358 356 354 358 359 359 360 362 362 361 360 360 360 360 359 360 360 361 359 359 360 359 356 352 351 350 349 349 349 350 351 350 342 339 345 353 360 361 357 356 354 356 354
359 355 352 353 354 355 357 360 361 361 361 360 360 359 356 354 356 358 358 359 359 358 355 353 351 351 350 351 351 352 353 343 337 337 351 358 357 354 351 349 348 347 346
348 354 352 348 349 348 355 357 355 357 354 353 355 355 353 348 349 354 354 358 358 357 355 354 352 352 351 343 340 346 345 340 336 346 352 355 354 351 349 346 344 342 343
350 350 354 349 348 344 349 353 352 352 352 353 353 352 349 347 347 348 347 352 349 354 347 349 347 346 343 339 338 337 339 337 342 342 349 353 351 348 345 343 342 343 343
343 349 351 355 353 351 350 348 348 350 349 349 350 351 347 341 342 344 346 346 345 344 343 339 339 338 338 339 337 337 338 343 341 340 344 350 347 346 343 342 343 343 340
315 348 353 354 354 354 348 343 343 344 344 345 345 348 344 341 340 344 345 345 344 341 340 336 337 339 340 339 339 341 342 345 340 338 337 345 345 344 342 340 340 339 336
314 333 349 353 354 352 349 344 343 344 342 342 343 346 342 341 341 344 344 344 341 339 340 339 336 339 337 340 342 345 344 344 344 339 337 337 343 342 341 338 337 334 332
316 316 346 349 352 352 352 352 349 348 344 340 342 346 343 342 345 342 341 341 341 340 339 343 343 342 340 342 343 343 344 346 345 341 340 333 336 341 341 337 335 332 330
315 318 336 353 351 351 349 353 352 354 348 344 345 347 344 345 348 342 340 340 338 338 338 339 340 339 341 341 345 343 342 343 342 340 333 332 329 331 338 337 333 332 329
312 317 325 331 349 349 350 349 350 353 352 349 348 348 345 348 350 343 341 340 339 339 338 339 340 341 341 341 340 342 344 339 340 337 332 330 330 328 329 337 335 332 329
312 312 328 328 330 342 350 346 348 348 346 350 350 349 346 348 346 343 340 340 338 339 341 342 342 344 341 338 339 337 337 338 337 333 330 331 330 323 326 326 326 326 330
313 314 327 329 330 329 331 345 343 342 343 340 343 351 347 348 345 344 339 340 336 340 340 343 342 340 333 333 332 329 330 336 332 332 331 330 323 322 320 322 322 321 324
314 315 324 326 327 332 338 344 345 345 341 338 339 349 349 347 345 343 340 339 342 340 343 343 343 337 332 329 324 322 321 328 326 331 330 323 320 318 320 319 319 319 317
314 323 324 324 325 331 332 339 344 343 343 342 344 348 347 346 345 343 340 339 342 343 342 341 340 337 326 326 325 320 310 311 313 322 317 318 318 318 318 317 316 318 316
313 320 323 323 322 325 332 331 334 338 337 342 342 343 347 347 345 342 340 342 344 343 342 341 341 337 331 322 323 324 319 316 309 307 311 311 313 313 312 315 313 315 314
315 315 323 325 325 326 330 329 328 335 340 343 340 341 342 346 343 344 339 343 342 342 338 333 327 323 323 316 315 314 313 316 312 310 305 305 307 309 312 310 311 311 311
313 313 318 325 324 330 334 335 333 337 340 340 335 340 341 345 342 343 346 342 339 334 329 326 323 320 318 315 313 313 311 309 307 306 304 303 303 306 310 308 308 309 310
Wind_Speed
6 8 15 18 19 17 17 16 16 16 16 15 15 14 14 14 14 15 17 15 15 14 13 13 11 10 9 8 9 7 8 8 7 5 4 3 3 6 8 9 12 8 8
13 8 14 16 19 19 17 17 15 14 15 16 15 15 13 12 12 12 13 13 13 12 12 11 10 9 8 8 8 9 8 7 6 5 4 4 2 2 3 7 8 7 7
13 9 12 14 17 17 16 19 18 15 13 15 15 15 14 12 12 11 12 12 12 11 11 10 9 7 7 8 7 7 5 4 4 5 6 4 4 7 4 4 6 6 4
14 8 9 15 14 17 17 15 16 16 15 15 14 13 13 13 11 11 10 10 10 11 10 9 8 7 7 7 6 4 4 4 6 8 3 4 7 12 9 8 7 6 3
15 11 11 14 14 15 15 17 17 16 14 16 16 14 13 12 11 11 10 10 9 9 8 8 7 6 6 5 4 3 3 4 7 9 6 5 4 10 12 10 7 6 5
15 13 15 15 14 14 13 16 16 15 15 15 16 15 15 13 12 9 10 10 8 8 8 7 6 5 4 3 2 1 3 4 7 6 6 7 5 11 11 9 5 2 2
13 12 15 18 15 14 14 14 16 16 15 15 14 14 14 13 12 10 10 10 8 8 7 6 5 4 3 2 2 3 4 6 5 6 6 6 3 13 12 8 2 2 4
12 9 10 18 18 15 13 13 15 16 15 15 14 14 13 12 12 11 8 9 8 8 6 5 4 4 4 3 5 6 7 8 5 5 6 6 7 9 6 3 1 3 4
14 11 8 7 14 17 14 13 13 15 15 15 15 14 13 12 11 11 9 9 9 9 7 6 5 4 4 6 9 9 9 10 3 4 6 3 7 6 5 4 8 7 6
12 12 8 10 6 8 10 13 13 14 14 15 14 14 14 13 13 12 11 10 10 9 8 7 7 6 7 9 11 10 10 12 2 4 0 2 7 10 12 15 15 15 15
9 11 11 9 9 7 8 10 11 13 13 13 14 14 11 5 7 10 10 11 10 10 9 8 8 9 10 10 12 13 12 1 4 3 3 8 10 13 14 14 13 13 13
6 10 8 10 10 9 9 9 7 8 6 8 7 9 6 6 6 9 10 13 12 11 10 10 10 11 10 4 5 10 5 4 3 4 3 9 11 13 14 13 13 13 12
7 5 8 11 11 11 8 7 5 4 5 5 7 8 7 6 7 6 3 6 5 10 4 6 6 5 5 4 5 6 5 3 3 3 5 8 10 12 13 14 12 12 12
6 6 4 8 9 6 8 8 9 8 7 6 8 10 7 5 7 6 6 6 6 4 6 5 4 5 7 8 8 5 5 3 4 3 6 9 9 11 14 12 12 12 12
5 8 8 5 5 6 10 7 8 9 8 8 8 9 7 6 7 8 7 6 7 5 5 5 5 6 7 8 5 2 3 9 9 5 3 11 9 11 11 11 10 9 8
7 9 10 9 7 5 6 10 9 9 10 9 9 10 10 8 8 8 8 8 7 5 6 7 6 5 5 3 5 4 4 4 6 8 5 5 12 10 9 9 8 7 7
5 6 8 9 7 6 7 6 7 5 9 9 10 12 13 9 9 8 5 5 8 5 7 5 3 3 2 1 3 3 3 3 3 6 6 5 6 10 10 9 7 6 6
6 8 7 7 8 7 7 5 7 5 6 10 10 11 13 12 9 8 6 5 6 4 4 4 3 2 3 3 3 4 3 3 4 6 5 5 4 5 9 11 9 8 8
8 7 8 8 9 9 6 5 7 6 4 6 8 11 12 13 9 9 6 6 6 4 4 4 4 3 2 3 1 3 3 2 2 5 6 5 6 6 4 10 9 9 8
9 8 9 8 9 7 5 4 3 7 2 5 6 10 15 11 11 8 6 6 6 4 4 3 4 3 3 3 3 2 1 2 3 2 3 2 3 5 6 5 5 6 10
8 8 9 8 8 5 2 2 2 4 5 1 7 18 16 13 14 10 6 5 5 6 6 5 4 6 4 2 3 4 3 3 4 1 3 3 5 2 5 6 4 3 3
10 9 8 9 8 5 3 3 3 3 5 11 13 17 16 14 13 10 8 5 6 4 5 4 5 3 3 3 3 2 1 4 4 2 4 2 2 3 0 2 6 5 3
10 10 10 10 9 5 6 3 2 3 2 6 13 9 7 10 8 10 6 5 6 5 5 5 5 7 4 2 4 4 2 2 1 4 6 5 6 4 3 3 6 6 6
10 9 11 10 9 8 9 4 6 5 7 6 7 5 0 4 5 7 8 5 6 4 5 4 4 5 6 5 3 3 4 4 3 3 3 3 5 7 5 4 5 6 8
8 9 10 10 9 8 7 8 6 5 5 5 3 4 7 8 1 8 4 5 6 5 6 9 8 7 5 5 4 2 4 4 4 3 1 4 5 3 3 5 5 4 6
6 8 8 10 9 8 8 9 10 9 6 5 4 4 7 9 10 12 8 6 8 10 9 8 8 9 8 7 5 5 4 3 1 3 3 2 2 3 2 4 4 5 5
Wind_Direction
106 128 129 127 122 121 122 118 117 118 115 111 108 103 97 98 102 109 111 113 116 119 121 120 114 106 102 90 77 68 60 59 57 60 75 107 131 114 122 112 91 91 99
128 140 129 129 125 127 129 123 119 118 121 122 118 113 105 102 104 107 108 113 117 116 118 117 113 108 98 81 63 53 48 44 33 3 332 307 242 161 139 115 105 111 118
131 141 126 126 129 129 137 134 129 129 126 122 121 118 117 113 110 112 115 119 120 120 121 121 117 107 88 78 70 58 44 28 358 320 319 300 256 204 190 151 126 123 138
136 127 125 126 132 133 139 134 130 134 134 128 124 124 125 123 121 119 115 116 120 125 126 124 118 103 89 79 70 60 38 356 332 315 305 256 259 189 182 202 170 159 184
137 133 132 127 132 133 145 137 136 139 139 134 133 134 131 130 131 132 132 124 125 126 122 115 105 93 86 82 75 53 7 338 322 309 293 287 317 164 181 195 192 179 182
141 138 136 131 133 138 152 139 138 141 142 142 142 143 142 140 139 142 139 130 129 127 123 114 108 106 102 100 75 2 305 302 308 295 289 287 222 179 184 192 208 180 240
140 141 144 137 137 141 151 147 143 146 147 147 147 147 148 146 147 149 147 139 136 127 125 129 129 127 142 163 218 256 274 284 279 284 297 306 292 165 180 186 196 319 319
120 121 140 141 139 142 150 152 150 149 149 148 149 151 148 150 151 149 154 145 141 134 142 152 165 179 188 220 250 255 260 261 295 318 315 311 143 154 148 123 28 357 343
120 124 125 134 143 145 146 153 155 152 152 151 152 151 150 156 156 154 164 163 154 151 160 186 194 209 228 249 252 254 261 271 302 292 313 57 99 102 103 69 45 19 12
135 140 150 137 142 144 146 155 158 158 155 152 154 155 157 163 161 165 169 176 160 168 177 202 215 222 241 251 259 265 269 273 274 269 65 95 92 88 78 65 61 62 62
147 145 151 152 150 153 144 158 158 160 155 156 158 160 158 161 167 174 175 173 179 181 191 208 227 235 243 256 270 269 268 230 264 223 132 110 109 90 78 72 65 61 61
128 146 160 159 160 164 166 149 149 163 171 182 168 165 167 171 173 185 194 185 187 192 202 215 228 239 252 250 273 278 244 122 248 131 127 127 107 103 96 84 73 65 63
173 162 156 164 171 178 154 154 158 168 178 180 178 176 185 183 186 188 175 186 189 202 208 217 233 232 237 229 254 254 244 150 168 132 127 140 123 110 102 87 79 78 73
186 159 195 156 165 171 147 169 171 172 179 186 189 183 193 198 188 172 175 190 190 200 213 216 212 218 230 237 234 227 237 144 122 124 159 148 130 112 93 92 94 91 85
147 158 156 169 201 151 162 179 180 179 183 188 185 191 192 201 190 177 184 192 203 196 196 218 213 211 227 235 256 267 149 127 152 155 158 150 119 95 99 100 98 102 102
232 159 168 170 201 155 187 183 192 186 188 182 188 193 197 205 199 188 182 194 201 201 206 206 215 195 206 194 238 162 132 116 127 147 152 138 117 118 123 118 120 113 107
225 232 172 168 183 199 195 208 204 219 194 187 190 191 196 201 196 196 193 180 201 192 188 176 154 157 179 115 205 188 146 130 123 133 128 134 133 142 147 141 142 139 134
193 204 188 180 177 187 196 230 229 217 200 201 192 191 198 201 184 187 185 202 199 187 164 148 170 185 237 224 189 227 207 152 138 131 117 136 155 161 170 164 168 171 165
240 192 197 189 182 196 187 210 238 245 236 225 198 191 195 199 182 185 178 191 186 183 178 176 211 156 190 135 151 33 88 153 120 120 139 157 156 166 177 193 175 189 187
207 210 192 193 173 187 187 185 242 261 270 307 321 206 187 192 184 185 184 183 174 175 187 187 183 136 122 111 56 356 275 205 101 123 149 158 72 130 169 174 172 212 205
207 194 175 174 204 175 156 161 206 236 232 142 280 285 197 187 187 181 180 183 179 173 189 201 159 124 66 59 61 6 349 108 103 103 81 51 123 143 114 146 171 197 224
188 186 170 180 186 194 137 161 181 192 220 199 218 232 219 194 180 173 172 181 175 161 164 164 142 114 93 48 116 104 1 357 344 357 63 81 46 21 187 81 107 128 132
173 166 167 177 189 193 189 150 201 277 231 225 223 253 232 194 190 170 172 169 174 158 177 165 128 111 123 47 88 137 78 186 348 6 31 34 31 6 11 75 52 56 80
185 162 164 175 187 206 194 172 180 206 249 240 234 196 252 354 299 196 169 164 184 168 147 124 115 115 121 136 73 67 93 138 123 350 351 15 6 15 32 64 56 64 73
163 168 174 183 196 208 187 187 192 210 230 267 289 239 180 189 27 301 147 188 176 125 117 115 106 98 101 112 118 125 69 61 61 123 271 333 8 9 40 57 63 66 68
178 165 168 179 204 198 193 199 200 209 215 242 236 207 200 186 173 202 232 148 139 120 114 106 102 93 99 93 91 77 87 107 62 70 47 16 239 304 46 65 72 65 57